CW3322 Weather Reports


time (UTC)temp
F
wind
direction
speed
knots
gust
knots
rain 1hr
in
rain 24hr
in
rain mn
in
humidity
%
barometer
mb
20260506214018 50 0.0 0.0 0.00 0.03 0.03 94 1010.9
20260506213733 50 0.0 0.0 0.00 0.03 0.03 93 1010.9
20260506213015 50 0.0 0.0 0.00 0.03 0.03 93 1010.9
20260506212519 50 0.0 0.0 0.00 0.03 0.03 92 1010.9
20260506212024 50 0.0 0.0 0.00 0.03 0.03 91 1010.8
20260506211517 50 0.0 0.0 0.00 0.03 0.03 90 1010.8
20260506211022 50 0.0 0.0 0.00 0.03 0.03 91 1010.8
20260506210556 50 317 0.0 0.0 0.00 0.03 0.03 91 1010.8
20260506210018 50 311 0.0 1.7 0.00 0.03 0.03 91 1010.8
20260506205623 50 317 0.0 0.9 0.00 0.03 0.03 91 1010.8
20260506205234 50 0.0 0.0 0.00 0.03 0.03 90 1010.8
20260506204520 50 0.0 0.0 0.00 0.03 0.03 90 1009.9
20260506204311 50 321 0.0 0.9 0.00 0.03 0.03 90 1009.8
20260506203547 50 0.0 0.0 0.00 0.03 0.03 90 1009.8
20260506203021 50 308 0.0 1.7 0.00 0.03 0.03 89 1010.7
20260506202526 50 347 0.0 0.0 0.00 0.03 0.03 89 1010.8
20260506202018 51 0.0 0.0 0.00 0.03 0.03 89 1010.8
20260506201523 51 314 0.0 0.9 0.00 0.03 0.03 88 1010.0
20260506201045 51 0.0 0.0 0.00 0.03 0.03 88 1009.8
20260506200520 51 317 0.0 0.0 0.00 0.03 0.03 88 1009.8
20260506200024 51 314 0.0 0.9 0.00 0.03 0.03 88 1009.8
20260506195547 51 295 0.0 1.7 0.00 0.03 0.03 88 1009.8
20260506195021 52 294 0.9 1.7 0.00 0.03 0.03 89 1009.9
20260506194824 52 322 0.0 0.9 0.00 0.03 0.03 88 1009.8
20260506194018 52 316 0.9 1.7 0.00 0.03 0.03 88 1009.8
20260506193829 52 298 0.0 2.6 0.00 0.03 0.03 90 1009.8
20260506193015 52 304 0.9 2.6 0.00 0.03 0.03 91 1009.8
20260506192520 52 320 0.0 1.7 0.00 0.03 0.03 91 1009.8
20260506192025 52 0.0 0.0 0.00 0.03 0.03 92 1009.8
20260506191517 53 0.0 0.0 0.00 0.03 0.03 90 1009.8
20260506191023 53 0.0 0.0 0.00 0.03 0.03 90 1009.9
20260506190557 53 0.0 0.0 0.00 0.03 0.03 90 1009.9
20260506190019 53 0.0 0.0 0.00 0.03 0.03 90 1009.4
20260506185524 53 308 0.0 1.7 0.00 0.03 0.03 89 1008.9
20260506185016 53 321 0.0 0.0 0.00 0.03 0.03 90 1008.9
20260506184521 53 317 0.0 0.0 0.00 0.03 0.03 90 1008.8
20260506184125 53 314 0.0 0.9 0.00 0.03 0.03 89 1008.8
20260506183517 54 317 0.0 0.9 0.00 0.04 0.03 88 1008.9
20260506183022 54 312 0.0 1.7 0.00 0.04 0.03 89 1008.9
20260506182527 54 296 0.9 1.7 0.00 0.06 0.03 89 1008.9
20260506182019 54 39 0.0 1.7 0.00 0.08 0.03 89 1008.9
20260506181524 54 327 0.0 0.9 0.00 0.08 0.03 89 1008.9
20260506181046 54 307 0.0 1.7 0.00 0.08 0.03 89 1008.9
20260506180521 54 303 0.0 1.7 0.00 0.08 0.03 89 1008.9
20260506180026 54 311 0.0 0.0 0.00 0.08 0.03 89 1008.9
20260506175548 55 0.0 0.0 0.00 0.08 0.03 89 1008.9
20260506175023 55 305 0.0 2.6 0.00 0.09 0.03 88 1008.9
20260506174515 55 298 0.9 4.3 0.00 0.09 0.03 88 1008.9
20260506174020 55 318 0.0 0.0 0.00 0.09 0.03 88 1008.9
20260506173525 55 341 0.0 1.7 0.00 0.09 0.03 87 1008.9
20260506173047 55 355 0.9 1.7 0.00 0.09 0.03 87 1008.9
20260506172522 55 320 0.0 0.9 0.00 0.09 0.03 87 1007.9
20260506172027 55 315 0.0 1.7 0.00 0.09 0.03 87 1007.9
20260506171519 55 305 0.0 1.7 0.00 0.10 0.03 87 1007.8
20260506171037 55 315 0.0 0.9 0.00 0.12 0.03 88 1007.8
20260506170529 55 327 0.0 0.0 0.00 0.12 0.03 88 1007.8
20260506170052 55 0.0 0.0 0.00 0.12 0.03 88 1007.8
20260506165555 55 316 0.0 0.9 0.00 0.13 0.03 88 1007.8
20260506165018 55 321 0.0 0.9 0.00 0.13 0.03 88 1007.8
20260506164522 55 320 0.0 1.7 0.00 0.13 0.03 89 1007.8
20260506164027 55 304 0.0 1.7 0.00 0.13 0.03 88 1007.8
20260506163519 55 322 0.0 0.9 0.00 0.13 0.03 88 1007.8
20260506163024 56 318 0.0 0.9 0.00 0.13 0.03 88 1007.8
20260506162516 56 307 0.9 0.9 0.00 0.13 0.03 87 1007.8
20260506162451 56 7 0.0 1.7 0.00 0.13 0.03 87 1007.8
20260506161525 57 17 0.0 4.3 0.00 0.13 0.03 86 1007.9
20260506161118 57 296 0.9 2.6 0.00 0.13 0.03 85 1007.9
20260506160715 58 296 0.9 4.3 0.00 0.13 0.03 85 1007.9
20260506160027 58 331 0.0 0.0 0.00 0.13 0.03 85 1007.9
20260506155519 59 292 0.9 5.2 0.00 0.13 0.03 84 1007.9
20260506155023 59 358 0.9 1.7 0.00 0.13 0.03 85 1007.9
20260506154546 59 288 0.0 3.5 0.00 0.13 0.03 86 1007.9
20260506154050 58 4 0.0 0.9 0.00 0.13 0.03 86 1007.9
20260506153525 58 0.0 0.0 0.00 0.13 0.03 87 1007.9
20260506153018 58 315 0.0 1.7 0.00 0.13 0.03 88 1007.9
20260506152523 58 284 0.9 4.3 0.00 0.13 0.03 89 1007.9
20260506152249 58 299 0.9 1.7 0.00 0.13 0.03 87 1007.9
20260506151520 58 310 0.0 1.7 0.00 0.13 0.03 87 1007.9
20260506151353 59 316 0.0 1.7 0.00 0.13 0.03 87 1007.9
20260506150517 59 320 0.0 1.7 0.00 0.13 0.03 87 1007.9
20260506150022 59 294 0.9 5.2 0.00 0.13 0.03 88 1007.9
20260506145527 58 288 0.0 1.7 0.00 0.13 0.03 88 1007.9
20260506145019 58 276 0.0 1.7 0.00 0.13 0.03 89 1007.9
20260506144524 58 303 0.0 4.3 0.00 0.13 0.03 90 1007.9
20260506144046 58 295 0.9 5.2 0.00 0.13 0.03 91 1007.9
20260506143522 57 313 0.0 5.2 0.00 0.13 0.03 92 1007.9
20260506143026 57 319 0.0 0.9 0.00 0.13 0.03 93 1007.9
20260506142519 57 304 0.9 1.7 0.00 0.14 0.03 93 1007.9
20260506142023 57 316 0.0 1.7 0.00 0.15 0.03 93 1007.9
20260506141516 57 297 0.0 2.6 0.00 0.18 0.03 93 1007.9
20260506141021 58 284 0.0 1.7 0.00 0.20 0.03 93 1008.0
20260506140525 58 303 0.9 5.2 0.01 0.22 0.03 92 1008.0
20260506140118 58 356 0.0 0.9 0.01 0.22 0.03 93 1008.0
20260506135523 58 0.0 0.0 0.01 0.22 0.03 94 1008.0
20260506135015 57 0.0 0.0 0.01 0.23 0.03 96 1007.9
20260506134520 56 0.0 0.0 0.01 0.24 0.03 97 1007.9
20260506134024 56 320 0.0 0.9 0.01 0.24 0.03 97 1007.9
20260506133517 56 310 0.9 1.7 0.01 0.25 0.03 97 1007.9
20260506133052 56 315 0.0 5.2 0.01 0.25 0.03 96 1007.9
20260506132526 56 304 0.9 4.3 0.01 0.25 0.03 96 1007.9
20260506132019 57 309 0.9 2.6 0.01 0.25 0.03 96 1007.9
20260506131523 57 303 0.9 1.7 0.01 0.25 0.03 96 1008.0
20260506131016 56 305 0.9 1.7 0.02 0.25 0.03 96 1007.9
20260506130533 57 299 0.9 4.3 0.01 0.24 0.02 96 1007.3
20260506130056 57 294 1.7 4.3 0.01 0.24 0.02 95 1007.0
20260506125519 57 297 0.9 4.3 0.01 0.24 0.02 95 1007.0
20260506125023 57 301 0.9 4.3 0.01 0.24 0.02 95 1007.0
20260506124516 57 310 0.0 1.7 0.01 0.24 0.02 96 1007.0
20260506124020 57 311 0.0 1.7 0.01 0.25 0.02 96 1007.0
20260506123525 57 0.0 0.0 0.01 0.25 0.02 95 1007.0
20260506123118 57 312 0.0 1.7 0.01 0.25 0.02 95 1007.0
20260506122522 57 0.0 0.0 0.01 0.25 0.02 92 1007.0
20260506122015 58 322 0.0 1.7 0.01 0.25 0.02 90 1007.0
20260506121520 58 0.0 0.0 0.01 0.25 0.02 89 1007.0
20260506121449 58 277 1.7 4.3 0.00 0.24 0.01 85 1007.0
20260506120554 59 307 0.9 1.7 0.00 0.25 0.01 85 1007.0
20260506120022 58 6 0.9 4.3 0.00 0.25 0.01 84 1007.0
20260506115527 58 312 0.9 2.6 0.00 0.25 0.01 85 1007.0
20260506115019 59 307 0.9 4.3 0.00 0.25 0.01 85 1007.0
20260506114537 59 334 0.9 5.2 0.00 0.25 0.01 83 1007.0
20260506114030 60 309 0.9 1.7 0.00 0.25 0.01 84 1007.0
20260506113522 60 337 0.9 1.7 0.00 0.25 0.01 82 1007.0
20260506113026 60 353 0.9 1.7 0.00 0.25 0.01 83 1007.0
20260506112519 59 319 1.7 2.6 0.00 0.25 0.01 84 1007.0
20260506112023 59 302 0.9 2.6 0.00 0.26 0.01 85 1007.0
20260506111516 59 305 0.9 6.1 0.00 0.26 0.01 85 1007.0
20260506111021 59 304 0.9 3.5 0.00 0.26 0.01 85 1007.0
20260506110525 60 295 1.7 4.3 0.00 0.26 0.01 84 1007.0
20260506110018 60 303 1.7 5.2 0.00 0.26 0.01 84 1007.0
20260506105524 59 290 1.7 6.1 0.00 0.26 0.01 84 1007.0
20260506105046 58 312 0.9 2.6 0.00 0.26 0.01 88 1007.0
20260506104516 58 303 0.9 5.2 0.00 0.26 0.01 90 1007.0
20260506104021 58 300 0.9 2.6 0.00 0.26 0.01 89 1007.0
20260506103525 58 299 0.9 2.6 0.00 0.26 0.01 89 1007.0
20260506103018 57 309 0.9 1.7 0.00 0.26 0.01 91 1006.9
20260506102523 57 303 0.9 5.2 0.00 0.26 0.01 90 1006.9
20260506102016 57 302 0.9 1.7 0.00 0.26 0.01 90 1006.9
20260506101521 57 289 1.7 5.2 0.00 0.26 0.01 91 1006.9
20260506101026 57 277 0.9 5.2 0.00 0.26 0.01 91 1006.9
20260506100518 57 288 1.7 4.3 0.00 0.26 0.01 92 1006.9
20260506100023 57 290 1.7 4.3 0.00 0.26 0.01 91 1006.9
20260506095516 56 307 0.9 1.7 0.00 0.26 0.01 92 1006.9
20260506095021 56 290 0.9 4.3 0.00 0.26 0.01 92 1006.9
20260506094526 56 309 0.0 1.7 0.00 0.26 0.01 94 1006.9
20260506094019 56 311 0.9 2.6 0.00 0.26 0.01 94 1006.9
20260506093523 56 286 1.7 5.2 0.00 0.26 0.01 94 1006.9
20260506093016 56 292 0.9 6.1 0.00 0.26 0.01 94 1006.9
20260506092521 56 300 0.9 4.3 0.00 0.26 0.01 95 1006.9
20260506092026 56 316 0.9 6.1 0.00 0.26 0.01 94 1006.9
20260506091519 56 314 0.9 1.7 0.00 0.26 0.01 94 1006.9
20260506091219 55 274 0.9 3.5 0.00 0.26 0.01 95 1006.9
20260506090516 55 299 0.0 1.7 0.00 0.26 0.01 96 1006.9
20260506090254 55 312 0.9 1.7 0.00 0.26 0.01 96 1006.9
20260506085526 55 310 0.0 1.7 0.00 0.26 0.01 97 1006.9
20260506085018 55 302 0.9 1.7 0.00 0.26 0.01 97 1006.9
20260506084523 55 316 0.0 1.7 0.00 0.26 0.01 98 1006.9
20260506084016 54 297 0.9 1.7 0.00 0.26 0.01 97 1006.9
20260506083551 54 293 0.9 5.2 0.00 0.26 0.01 98 1006.9
20260506083026 54 315 0.0 1.7 0.00 0.26 0.01 98 1006.9
20260506082518 54 312 0.9 1.7 0.00 0.26 0.01 98 1006.9
20260506082023 54 315 0.0 1.7 0.00 0.26 0.01 98 1006.9
20260506081515 54 312 0.9 1.7 0.00 0.26 0.01 98 1006.9
20260506081020 54 319 0.0 1.7 0.00 0.26 0.01 99 1006.9
20260506080524 54 305 0.9 4.3 0.00 0.26 0.01 99 1006.9
20260506073527 54 310 0.9 1.7 0.00 0.26 0.01 99 1007.0
20260506073019 54 307 0.9 4.3 0.00 0.26 0.01 99 1007.0
20260506072523 54 336 0.0 1.7 0.00 0.26 0.01 99 1007.0
20260506072016 53 309 0.9 1.7 0.00 0.26 0.01 99 1006.9
20260506071750 53 303 0.0 1.7 0.00 0.26 0.01 99 1006.9
20260506071025 53 304 0.9 1.7 0.00 0.26 0.01 99 1007.0
20260506070516 53 310 0.0 1.7 0.00 0.26 0.01 99 1007.0
20260506070104 53 317 0.0 1.7 0.00 0.26 0.01 99 1007.0
20260506062020 52 273 0.0 2.6 0.00 0.26 0.01 99 1006.9
20260506061525 52 299 0.9 1.7 0.00 0.26 0.01 99 1006.9
20260506061017 52 315 0.0 0.9 0.00 0.26 0.01 99 1007.0
20260506060521 52 340 0.0 0.9 0.00 0.26 0.01 99 1007.0
20260506051021 51 319 0.0 1.7 0.00 0.26 0.01 99 1006.9
20260506050526 50 317 0.0 0.9 0.00 0.26 0.01 99 1006.9
20260506045015 50 297 0.0 1.7 0.00 0.26 0.01 99 1006.9
20260506044520 50 0.0 0.0 0.00 0.26 0.01 99 1006.9
20260506044218 50 0.0 0.0 0.00 0.26 0.01 99 1006.9
20260506043516 50 0.0 0.0 0.00 0.26 0.01 99 1006.9
20260506043313 49 0.0 0.0 0.00 0.26 0.01 99 1006.9
20260506042525 49 0.0 0.0 0.00 0.26 0.01 99 1006.9
20260506042017 49 0.0 0.0 0.00 0.26 0.01 99 1006.9
20260506041552 49 0.0 0.0 0.00 0.26 0.01 99 1006.9
20260506041026 49 0.0 0.0 0.00 0.26 0.01 99 1006.9
20260506040518 49 0.0 0.0 0.00 0.26 0.01 99 1006.9
20260506040023 49 0.0 0.0 0.00 0.26 0.01 99 1006.9
20260506035515 49 0.0 0.0 0.00 0.26 0.01 99 1006.9
20260506035019 49 0.0 0.0 0.00 0.26 0.01 99 1006.9
20260506034524 49 312 0.0 1.7 0.00 0.26 0.01 99 1006.9
20260506034116 49 0.0 0.0 0.00 0.26 0.01 99 1006.9
20260506033520 49 0.0 0.0 0.00 0.26 0.01 99 1006.9
20260506033025 49 0.0 0.0 0.01 0.26 0.01 99 1006.9
20260506032518 50 0.0 0.0 0.01 0.26 0.01 99 1006.9
20260506032022 50 0.0 0.0 0.01 0.26 0.01 99 1006.9
20260506031526 50 0.0 0.0 0.01 0.26 0.01 99 1006.9
20260506031019 50 0.0 0.0 0.01 0.26 0.01 99 1006.9
20260506030523 51 0.0 0.0 0.01 0.26 0.01 99 1006.9
20260506030016 51 0.0 0.0 0.01 0.26 0.01 99 1006.9
20260506025520 51 0.0 0.0 0.01 0.26 0.01 99 1006.9
20260506025025 50 0.0 0.0 0.01 0.26 0.01 99 1006.9
20260506024517 50 0.0 0.0 0.01 0.26 0.01 99 1006.9
20260506024022 50 0.0 0.0 0.01 0.26 0.01 99 1006.9
20260506023526 50 0.0 0.0 0.01 0.26 0.01 99 1006.9
20260506023019 51 0.0 0.0 0.00 0.25 0.00 99 1006.9
20260506022537 51 0.0 0.0 0.00 0.25 0.00 99 1007.0
20260506022059 51 0.0 0.0 0.00 0.25 0.00 99 1007.0
20260506021551 51 0.0 0.0 0.00 0.25 0.00 99 1007.0
20260506021025 51 0.0 0.0 0.00 0.25 0.00 99 1007.0
20260506020517 52 0.0 0.0 0.00 0.25 0.00 99 1007.0
20260506020022 52 0.0 0.0 0.00 0.25 0.00 99 1007.0
20260506015526 52 0.0 0.0 0.00 0.25 0.00 99 1007.0
20260506015049 52 0.0 0.0 0.00 0.25 0.00 99 1007.0
20260506014523 52 0.0 0.0 0.00 0.25 0.00 99 1007.0
20260506014016 52 0.0 0.0 0.00 0.25 0.00 99 1007.0
20260506013521 52 0.0 0.0 0.00 0.25 0.00 99 1007.8
20260506013025 52 0.0 0.0 0.00 0.25 0.00 99 1008.0
20260506012518 52 0.0 0.0 0.00 0.25 0.00 99 1008.0
20260506012022 52 0.0 0.0 0.00 0.25 0.00 99 1007.3
20260506011527 52 0.0 0.0 0.00 0.25 0.00 99 1007.0
20260506011119 52 0.0 0.0 0.00 0.25 0.00 99 1007.0
20260506010943 52 336 0.0 0.0 0.00 0.25 0.00 99 1007.0
20260506010016 52 0.0 0.0 0.00 0.25 0.00 99 1007.0
20260506005521 53 0.0 0.0 0.00 0.25 0.00 99 1007.0
20260506005026 53 0.0 0.0 0.00 0.25 0.00 99 1007.7
20260506004518 53 0.0 0.0 0.00 0.25 0.00 99 1008.0
20260506004023 53 0.0 0.0 0.00 0.25 0.00 99 1008.0
20260506003515 54 0.0 0.0 0.00 0.25 0.00 99 1008.1
20260506003020 54 0.0 0.0 0.00 0.25 0.00 99 1008.1
20260506002524 54 0.0 0.0 0.00 0.25 0.00 99 1008.1
20260506002017 54 0.0 0.0 0.00 0.25 0.00 99 1008.1
20260506001522 54 318 0.0 0.9 0.00 0.25 0.00 99 1008.1
20260506001126 54 319 0.0 0.9 0.00 0.25 0.00 99 1008.1
20260506000519 54 323 0.0 0.0 0.00 0.25 0.00 99 1008.0
20260506000024 54 309 0.0 0.9 0.00 0.25 0.00 99 1008.0
20260505235516 54 316 0.0 1.7 0.00 0.25 0.00 99 1008.0
20260505235021 54 319 0.0 0.0 0.00 0.25 0.00 99 1008.0
20260505234526 54 318 0.0 0.9 0.00 0.25 0.00 99 1008.0
20260505234018 54 311 0.9 1.7 0.00 0.25 0.00 99 1008.0
20260505233553 54 313 0.0 0.9 0.00 0.25 0.00 99 1008.1
20260505233016 54 321 0.0 0.9 0.00 0.25 0.00 99 1008.1
20260505232520 53 324 0.0 1.7 0.00 0.25 0.00 99 1008.0
20260505232055 53 0.0 0.0 0.00 0.25 0.00 99 1008.0
20260505231518 53 0.0 0.0 0.00 0.25 0.00 99 1008.0
20260505231022 52 0.0 0.0 0.00 0.25 0.00 99 1008.0
20260505230545 52 0.0 0.0 0.00 0.25 0.00 99 1008.0
20260505230019 52 0.0 0.0 0.00 0.25 0.00 99 1008.0
20260505225524 52 0.0 0.0 0.00 0.25 0.00 99 1008.0
20260505225016 53 0.0 0.0 0.00 0.25 0.00 99 1008.0
20260505224516 53 0.0 0.0 0.00 0.25 0.00 99 1008.0
20260505224120 52 0.0 0.0 0.00 0.25 0.00 99 1008.0
20260505223525 52 0.0 0.0 0.00 0.25 0.00 99 1008.0
20260505223017 52 0.0 0.0 0.00 0.25 0.00 99 1008.0
20260505222522 52 0.0 0.0 0.00 0.25 0.00 99 1008.0
20260505222027 52 0.0 0.0 0.00 0.25 0.00 99 1008.0
20260505221519 52 0.0 0.0 0.00 0.25 0.00 99 1008.0
20260505221107 52 0.0 0.0 0.00 0.25 0.00 99 1008.0
20260505220530 52 0.0 0.0 0.00 0.25 0.00 99 1008.0
20260505220052 52 0.0 0.0 0.00 0.25 0.00 99 1008.0
20260505215526 53 0.0 0.0 0.00 0.25 0.25 99 1008.0
20260505215018 53 0.0 0.0 0.00 0.25 0.25 99 1008.0
20260505214523 52 0.0 0.0 0.00 0.25 0.25 99 1008.0